Lexington Weather

Lexington, Massachusetts, USA

42°F
1/23/2020 12:03pm 
  • Lexington Conditions: Mostly cloudy
  • Temperature: 42.1°F / 5.6°CWarmer 5.2°F than last hour.
  • Dew Point: 21.2°FDecreased 0.5°Fsince last hour.
  • Relative Humidity: 43%Decreased 11.0% since last hour.
  • Wind: Calm, 10-min avg: Calm, gust: 4 mph
  • Barometer: 30.31 inFalling 0.03  inHg/hr Falling Slowly
  • Visibility: 10 miles
  • Rain Today: 0.00 in
  •   

Regional Weather Roundup
for Boston / Norton, MA

        
000
ASUS41 KBOX 211110
RWRBOX

REGIONAL WEATHER ROUNDUP
NATIONAL WEATHER SERVICE BOSTON/NORTON MA
600 AM EST TUE JAN 21 2020

NOTE:  "FAIR" INDICATES FEW OR NO CLOUDS BELOW 12,000 FEET WITH NO 
SIGNIFICANT WEATHER AND/OR OBSTRUCTIONS TO VISIBILITY.

MAZALL-211200-
EASTERN MASSACHUSETTS
  
CITY           SKY/WX    TMP DP  RH WIND       PRES   REMARKS
BOSTON         FAIR      19   1  45 NW9       30.37R WCI   8          
BEVERLY        FAIR      14  -1  51 CALM      30.36R                  
LAWRENCE       FAIR      13  -1  54 NW6       30.37R WCI   4          
BEDFORD        FAIR      10  -3  55 W3        30.36R                  
BLUE HILL      NOT AVBL                                               
NORWOOD        FAIR       9  -1  64 CALM      30.37R                  
MARSHFIELD     FAIR      19   7  58 NW8       30.36R WCI   9          
PLYMOUTH       FAIR      17   4  56 NW8       30.35R WCI   7          
TAUNTON        FAIR      10   1  67 CALM      30.37R                  
NEW BEDFORD    FAIR      14   1  56 CALM      30.36R                  
$$

MAZALL-211200-
CAPE COD AND THE ISLANDS
  
CITY           SKY/WX    TMP DP  RH WIND       PRES   REMARKS
FALMOUTH       CLEAR     16   1  53 NW9       30.34R WCI   4          
HYANNIS        FAIR      20   8  60 W7        30.31R WCI  11          
CHATHAM        FAIR      24  16  71 VRB6      30.32R WCI  17          
PROVINCETOWN   FAIR      25  16  68 NW14      30.34R WCI  13          
NANTUCKET      FAIR      24  15  68 NW12      30.32R WCI  13          
MARTHAS VNYRD  FAIR      20   7  57 N13       30.34R WCI   7          
$$
 
MAZALL-211200-
CENTRAL AND WESTERN MASSACHUSETTS
  
CITY           SKY/WX    TMP DP  RH WIND       PRES   REMARKS
WORCESTER      FAIR      11  -3  53 NW13      30.28R WCI  -4          
FITCHBURG      FAIR       5  -4  66 CALM      30.35R                  
ORANGE         FAIR      -2  -8  76 CALM      30.36R                  
SPRINGFIELD    FAIR      -1  -6  80 CALM      30.37R                  
WESTFIELD      FAIR       3  -1  83 CALM      30.38R                  
NORTH ADAMS    FAIR      -1  -6  79 W3        30.37R                  
PITTSFIELD     FAIR      10   4  76 NW7       30.29R WCI  -1          
$$
 
RIZALL-211200-
RHODE ISLAND
  
CITY           SKY/WX    TMP DP  RH WIND       PRES   REMARKS
PROVIDENCE     FAIR      15   2  56 CALM      30.38R                  
NEWPORT        FAIR      18   2  49 N8        30.36R WCI   8          
BLOCK ISLAND   FAIR      19   4  51 N14       30.38R WCI   6          
SMITHFIELD     FAIR      13  -1  54 NW6       30.34R WCI   4          
WESTERLY       FAIR      17   2  51 N3        30.38R                  
$$
 
CTZALL-211200-
CONNECTICUT
  
CITY           SKY/WX    TMP DP  RH WIND       PRES   REMARKS
BRADLEY INTL   FAIR      11   2  67 CALM      30.38R                  
HARTFORD       FAIR      11   7  84 CALM      30.40R                  
BRIDGEPORT     FAIR      16   8  71 W5        30.41R WCI   9          
DANBURY        FAIR       7   1  76 SW3       30.39R                  
GROTON         FAIR      17   3  54 N10       30.38R WCI   5          
NEW HAVEN      FAIR      19   7  59 NW5       30.40R WCI  12          
CHESTER        NOT AVBL                                               
MERIDEN        FAIR      12   6  77 VRB6      30.40R WCI   3          
WILLIMANTIC    FAIR       6   0  76 CALM      30.39R                  
OXFORD         FAIR      12   5  73 N3        30.35R                  
$$

MEZ002-015-021-024-NHZ003-005-008-011-012-014-VTZ005-008-211200-
NORTHERN NEW ENGLAND
  
CITY           SKY/WX    TMP DP  RH WIND       PRES   REMARKS
PORTLAND ME    FAIR       0  -8  69 NW3       30.36R                  
BANGOR ME      FAIR       6  -3  66 NW7       30.33R WCI  -6          
CONCORD NH     FAIR       2  -5  72 CALM      30.36R                  
MANCHESTER NH  FAIR      12  -1  56 N10       30.34R WCI  -1          
NASHUA NH      FAIR       5  -4  66 NW5       30.36R WCI  -4          
PORTSMOUTH NH  CLEAR     11  -2  54 VRB2      30.31R                  
JAFFREY NH     FAIR       5  -2  72 NE3       30.28R                  
KEENE NH       FAIR      -7 -11  83 CALM      30.37R                  
BURLINGTON VT  FAIR      -2  -8  76 CALM      30.43R                  
MT. WASHINGTON PTCLDY     0 -11  60 NW46        N/A  WCI -31          
$$

NYZ052-076-211200-
EASTERN NEW YORK
  
CITY           SKY/WX    TMP DP  RH WIND       PRES   REMARKS
ALBANY         FAIR       9   2  73 CALM      30.42R                  
NEW YORK CITY  FAIR      21   9  59 NW9       30.42R WCI  11          
$$
 
ANZALL-211200-
MARINE OBSERVATIONS
  
STATION/POSITION TIME  TEMP    WIND        PRES    VSBY  WAVE
                       AIR SEA DIR/SP/G                  HT/PER
                 (UTC) (F)     (DEG/KT/KT) (MB)    (MI)  (FT/S)
BOSTON BUOY      1050   21 43  350/ 16/ 19 1027.3R         3/ 4
BUZZARDS BAY     1000   20     360/ 18/ 23 1027.7R
NANTUCKET SOUND  1040                        N/A           2/ 3
MASS BAY-STELLWA 1004   22 41  350/ 17/ 21 1025.3R  1 7/8  3/ 6
ISLE OF SHOALS   1000   18     330/ 12/ 15 1026.9R
S OF BLOCK IS    1100      45                N/A           4/ 4
$$

......................KEY.........................
  SKY/WX - SKY CONDITION/PRESENT WEATHER
  TMP    - TEMPERATURE IN FAHRENHEIT
  DWPT   - DEWPOINT IN FAHRENHEIT
  RH     - RELATIVE HUMIDITY IN PERCENT
  WIND   - DIRECTION AND SPEED IN MPH
  PRES   - MEAN SEA LEVEL PRESSURE IN INCHES OF HG
  WCI    - WIND CHILL INDEX
  VSB    - VISIBILITY IN MILES
  HX     - HEAT INDEX
  TC     - TEMPERATURE IN CELSIUS
  VRB    - VARIABLE WIND DIRECTION
  N/A    - NOT AVAILABLE
  
      

Other recent Regional Weather Roundups

Thu Jan 23, 11:10am

Thu Jan 23, 11:00am

Thu Jan 23, 10:10am

Thu Jan 23, 10:00am

Thu Jan 23, 9:10am

Thu Jan 23, 9:00am

Thu Jan 23, 8:10am

Thu Jan 23, 8:00am

Thu Jan 23, 7:10am

Thu Jan 23, 7:01am

Thu Jan 23, 6:10am

Thu Jan 23, 6:00am

Thu Jan 23, 5:10am

Thu Jan 23, 5:00am

Thu Jan 23, 4:10am

Thu Jan 23, 4:01am

Thu Jan 23, 3:10am

Thu Jan 23, 3:00am

Thu Jan 23, 2:10am

Thu Jan 23, 2:00am

Thu Jan 23, 1:10am

Thu Jan 23, 1:00am

Thu Jan 23, 12:10am

Thu Jan 23, 12:00am

Wed Jan 22, 11:10pm

Wed Jan 22, 11:01pm

Wed Jan 22, 10:10pm

Wed Jan 22, 10:00pm

Wed Jan 22, 9:10pm

Wed Jan 22, 9:00pm

Wed Jan 22, 8:10pm

Wed Jan 22, 8:01pm

Wed Jan 22, 7:10pm

Wed Jan 22, 7:00pm

Wed Jan 22, 6:10pm

Wed Jan 22, 6:01pm

Wed Jan 22, 5:10pm

Wed Jan 22, 5:00pm

Wed Jan 22, 4:10pm

Wed Jan 22, 4:00pm

Wed Jan 22, 3:10pm

Wed Jan 22, 3:00pm

Wed Jan 22, 2:10pm

Wed Jan 22, 2:00pm

Wed Jan 22, 1:10pm

Wed Jan 22, 1:00pm

Wed Jan 22, 12:10pm

Wed Jan 22, 12:00pm

Wed Jan 22, 11:10am

Wed Jan 22, 11:00am

Wed Jan 22, 10:10am

Wed Jan 22, 10:01am

Wed Jan 22, 9:10am

Wed Jan 22, 9:00am

Wed Jan 22, 8:10am

Wed Jan 22, 8:00am

Wed Jan 22, 7:10am

Wed Jan 22, 7:00am

Wed Jan 22, 6:10am

Wed Jan 22, 6:00am

Wed Jan 22, 5:10am

Wed Jan 22, 5:00am

Wed Jan 22, 4:10am

Wed Jan 22, 4:00am

Wed Jan 22, 3:10am

Wed Jan 22, 3:01am

Wed Jan 22, 2:10am

Wed Jan 22, 2:00am

Wed Jan 22, 1:10am

Wed Jan 22, 1:00am

Wed Jan 22, 12:10am

Wed Jan 22, 12:00am

Tue Jan 21, 11:10pm

Tue Jan 21, 11:00pm

Tue Jan 21, 10:10pm

Tue Jan 21, 10:00pm

Tue Jan 21, 9:10pm

Tue Jan 21, 9:01pm

Tue Jan 21, 8:10pm

Tue Jan 21, 8:00pm

Tue Jan 21, 7:10pm

Tue Jan 21, 7:00pm

Tue Jan 21, 6:10pm

Tue Jan 21, 6:01pm

Tue Jan 21, 5:10pm

Tue Jan 21, 5:00pm

Tue Jan 21, 4:10pm

Tue Jan 21, 4:00pm

Tue Jan 21, 3:10pm

Tue Jan 21, 3:01pm

Tue Jan 21, 2:10pm

Tue Jan 21, 2:00pm

Tue Jan 21, 1:10pm

Tue Jan 21, 1:00pm

Tue Jan 21, 12:10pm

Tue Jan 21, 12:00pm

Tue Jan 21, 11:10am

Tue Jan 21, 11:00am

Tue Jan 21, 10:10am

Tue Jan 21, 10:00am

Tue Jan 21, 9:10am

Tue Jan 21, 9:00am

Tue Jan 21, 8:10am

Tue Jan 21, 8:00am

Tue Jan 21, 7:10am

Tue Jan 21, 7:00am

Tue Jan 21, 6:00am

Tue Jan 21, 5:10am

Tue Jan 21, 5:00am

Tue Jan 21, 4:10am

Tue Jan 21, 4:00am

Tue Jan 21, 3:10am

Tue Jan 21, 3:00am

Tue Jan 21, 2:10am

Tue Jan 21, 2:01am

Tue Jan 21, 1:10am

Tue Jan 21, 1:00am

Tue Jan 21, 12:10am

Tue Jan 21, 12:00am

Mon Jan 20, 11:10pm

Mon Jan 20, 11:00pm

Mon Jan 20, 10:10pm

Mon Jan 20, 10:00pm

Mon Jan 20, 9:10pm

Mon Jan 20, 9:00pm

Mon Jan 20, 8:10pm

Mon Jan 20, 8:00pm

Mon Jan 20, 7:10pm

Mon Jan 20, 7:00pm

Mon Jan 20, 6:10pm

Mon Jan 20, 6:00pm

Mon Jan 20, 5:10pm

Mon Jan 20, 5:00pm

Mon Jan 20, 4:10pm

Mon Jan 20, 4:01pm

Mon Jan 20, 3:10pm

Mon Jan 20, 3:00pm

Mon Jan 20, 2:10pm

Mon Jan 20, 2:00pm

Mon Jan 20, 1:10pm

Mon Jan 20, 1:00pm

Mon Jan 20, 12:10pm

Mon Jan 20, 12:00pm

Meta data:

ID: 5429fa29-c4e8-4c3c-9d7b-d47ac172b2f5
Link: https://api.weather.gov/products/5429fa29-c4e8-4c3c-9d7b-d47ac172b2f5